Regional Weather Roundup
Issued by NWS

Home | Current Version | Previous Version | Graphics & Text | Print | Product List | Glossary On
Versions: 1 2 3 4 5 6 7 8 9 10 11 12 13 14 15 16 17 18 19 20 21 22 23 24 25 26 27 28 29 30 31 32 33 34 35 36 37 38 39 40 41 42 43 44 45 46 47 48 49 50
000
ASUS45 KCYS 040210
RWRWY

WYOMING REGIONAL WEATHER ROUNDUP
NATIONAL WEATHER SERVICE CHEYENNE WY
800 PM MDT MON AUG 03 2015

NOTE:  "FAIR" INDICATES FEW OR NO CLOUDS BELOW 12,000 FEET
WITH NO SIGNIFICANT WEATHER AND/OR OBSTRUCTIONS TO VISIBILITY.

WYZ001-040300-
YELLOWSTONE NATIONAL PARK

CITY           SKY/WX    TMP DP  RH WIND       PRES   REMARKS
LK YELLOWSTONE   N/A     60  45  57 VRB5      30.24S
W YELLOWSTONE  NOT AVBL

$$
WYZ002>013-054>058-071-098>099-040300-
NORTHERN WYOMING

CITY           SKY/WX    TMP DP  RH WIND       PRES   REMARKS
JACKSON        PTCLDY    63  52  67 N6        30.11S
CODY           CLOUDY    72  46  40 SE21G35   29.99R THUNDER
GREYBULL       MOCLDY    78  49  35 SE24G38   29.93R
WORLAND        FAIR      72  51  47 SE28G38   29.96S
SHERIDAN       FAIR      81  53  37 SE10      29.90S
BUFFALO        MOCLDY    71  49  45 S16G22    30.04R
GILLETTE       MOCLDY    72  51  47 SW26G36   29.98R
HULETT         FAIR      73  59  60 SE7       30.01R
NEWCASTLE      FAIR      77  54  44 SE9       29.99R

$$
WYZ014>020-022>026-101>103-040300-
CENTRAL WYOMING

CITY           SKY/WX    TMP DP  RH WIND       PRES   REMARKS
BIG PINEY      LGT RAIN  57  53  86 NW7       30.14R
PINEDALE       RAIN      55  55 100 N8        30.16R
DUBOIS         CLOUDY    64  41  42 E12G24    30.13S
LANDER         CLOUDY    62  58  86 NE12      30.05R
RIVERTON       LGT RAIN  65  55  70 NE10      30.06R
CASPER         CLOUDY    64  54  69 N8        30.03F
DOUGLAS        FAIR      73  46  38 N10       30.02S

$$
WYZ021-027>030-104>119-040300-
SOUTHERN WYOMING

CITY           SKY/WX    TMP DP  RH WIND       PRES   REMARKS
EVANSTON       CLOUDY    56  51  84 SW13      30.23R
KEMMERER       LGT RAIN  52  50  93 W22G29    30.18S
FORT BRIDGER   CLOUDY    57  55  94 W14       30.22R
ROCK SPRINGS   LGT RAIN  57  55  93 SW18      30.13R
DIXON          CLOUDY    63  55  74 S6        30.17R
RAWLINS        CLOUDY    60  53  77 SE7       30.15R
SARATOGA       RAIN      57  52  82 S8        30.19R
LARAMIE        CLOUDY    64  45  49 S15       30.18R
CHEYENNE       FAIR      72  37  28 SE9       30.10S
TORRINGTON     FAIR      80  49  33 S6        29.96R
PINE BLUFFS    FAIR      77  43  29 SE9G17    30.05R

$$



USA.gov is the U.S. government's official web portal to all federal, state and local government web resources and services.